Flag for Congo Weather past 2 weeks in Brazzaville, Congo

Now
77 °F

Passing clouds.


Feels Like: 79 °F
Forecast: 70 / 88 °F
Wind: 9 mph from West

Location: Brazzaville / Maya-Maya

Current Time: Aug 31, 2015 at 2:01:44 AM

Latest Report: Aug 31, 2015 at 1:00 AM


Visibility: 5 mi

Pressure: 30.01 "Hg

Humidity: 69%

Dew point: 66 °F

Location of BrazzavilleLocation

Historic Weather in Brazzaville — Graph

°F

Brazzaville temperature yesterday

Maximum temperature yesterday: 90 °F (at 3:00 PM)
Minimum temperature yesterday: 72 °F (at 4:00 AM)
Average temperature yesterday: 79 °F

Past Weeks' High & Low Weather Summary

 TemperatureHumidityPressure
High91 °F (Aug 20, 3:00 PM)94% (Aug 18, 4:00 AM)30.09 "Hg (Aug 18, 4:00 AM)
Low66 °F (Aug 29, 5:00 AM)46% (Aug 20, 3:00 PM)29.80 "Hg (Aug 20, 3:00 PM)
Average76 °F71%29.95 "Hg
* Reported Midnight between Aug 15 and Aug 16 — Midnight between Aug 30 and Aug 31, Brazzaville, Weather by CustomWeather, © 2015

Note: Actual official high and low records may vary slightly from our data, if they occured in-between our weather recording intervals... More about our weather records

Advertising

Brazzaville weather history for previous 24 hours

 ConditionsComfort  
Time TempWeatherWind HumidityBarometerVisibility
12:00 AM
Mon, Aug 31
77 °FPassing clouds.6 mph74%30.04 "Hg5 mi
11:00 PM
Sun, Aug 30
77 °FPassing clouds.6 mph69%30.04 "Hg5 mi
10:00 PM79 °FClear.7 mph65%30.01 "Hg5 mi
9:00 PM81 °FClear.6 mph62%29.98 "Hg5 mi
8:00 PM82 °FClear.7 mph58%29.95 "Hg6 mi
7:00 PM84 °FClear.7 mph55%29.92 "Hg6 mi
6:00 PM86 °FPassing clouds.7 mph52%29.89 "Hg6 mi
5:00 PM88 °FScattered clouds.8 mph49%29.89 "Hg6 mi
4:00 PM90 °FScattered clouds.8 mph49%29.89 "HgN/A
3:00 PM90 °FPartly sunny.7 mph46%29.89 "HgN/A
2:00 PM88 °FScattered clouds.6 mph49%29.92 "HgN/A
1:00 PM88 °FScattered clouds.9 mph49%29.95 "HgN/A
12:00 PM84 °FScattered clouds.6 mph55%30.01 "HgN/A
11:00 AM81 °FPassing clouds.5 mph62%30.04 "HgN/A
10:00 AM77 °FPartly sunny.6 mph69%30.07 "Hg5 mi
9:00 AM75 °FPartly sunny.9 mph69%30.07 "Hg5 mi
8:00 AM73 °FScattered clouds.10 mph74%30.07 "Hg5 mi
7:00 AM72 °FPartly sunny.9 mph78%30.04 "Hg5 mi
6:00 AM72 °FPartly sunny.6 mph78%30.04 "Hg5 mi
5:00 AM72 °FPassing clouds.5 mph78%30.04 "Hg5 mi
4:00 AM72 °FPassing clouds.6 mph78%30.01 "Hg5 mi
3:00 AM73 °FPassing clouds.9 mph74%30.04 "Hg5 mi
2:00 AM73 °FPassing clouds.9 mph74%30.04 "Hg5 mi
Weather by CustomWeather, © 2015

See weather overviewHow to use our weather pages